When you browse on this site, cookies collect data to enhance your experience and personalize the content and advertising you see.
Visit our Privacy Policy to learn more. By continuing to use the site, you agree to this use of cookies and data.
  • In Lithuania
  • List of Countries
  • For 7 days
  • Water Temperature
  • Weather Map
  • Weather Widgets
  • user-avatar
    Login

    Hourly Weather Giumri

    Today, 9 December, Monday

    Time Temperature Precipitation Wind Pressure Humidity
    00:00 -2°C° 0 mm 1 mps 629 mmHg 82%
    01:00 -2°C° 0 mm 1 mps 629 mmHg 82%
    02:00 -3°C° 0 mm 1 mps 629 mmHg 82%
    03:00 -3°C° 0 mm 1 mps 628 mmHg 85%
    04:00 -3°C° 0 mm 1 mps 628 mmHg 85%
    05:00 -3°C° 0 mm 1 mps 628 mmHg 85%
    06:00 -4°C° 0 mm 1 mps 628 mmHg 86%
    07:00 -3°C° 0 mm 1 mps 629 mmHg 84%
    08:00 -2°C° 0 mm 1 mps 630 mmHg 82%
    09:00 -1°C° 0 mm 1 mps 630 mmHg 81%
    10:00 -1°C° 0 mm 1 mps 630 mmHg 79%
    11:00 0°C° 0 mm 1 mps 631 mmHg 76%
    12:00 +1°C° 0 mm 1 mps 631 mmHg 74%
    13:00 +1°C° 0 mm 1 mps 631 mmHg 74%
    14:00 +1°C° 0 mm 1 mps 631 mmHg 74%
    15:00 +1°C° 0 mm 1 mps 631 mmHg 74%
    16:00 0°C° 0 mm 1 mps 631 mmHg 75%
    17:00 -1°C° 0 mm 1 mps 631 mmHg 77%
    18:00 -2°C° 0 mm 1 mps 631 mmHg 79%
    19:00 -3°C° 0 mm 1 mps 631 mmHg 79%
    20:00 -3°C° 0 mm 1 mps 631 mmHg 79%
    21:00 -3°C° 0 mm 1 mps 631 mmHg 79%
    22:00 -4°C° 0 mm 1 mps 631 mmHg 79%
    23:00 -4°C° 0 mm 1 mps 631 mmHg 79%

    Tomorrow, 10 December, Tuesday

    Time Temperature Precipitation Wind Pressure Humidity
    00:00 -4°C° 0 mm 1 mps 631 mmHg 79%
    01:00 -4°C° 0 mm 1 mps 631 mmHg 79%
    02:00 -6°C° 0 mm 1 mps 631 mmHg 79%
    03:00 -6°C° 0 mm 1 mps 631 mmHg 79%
    04:00 -6°C° 0 mm 1 mps 631 mmHg 80%
    05:00 -6°C° 0 mm 1 mps 631 mmHg 80%
    06:00 -6°C° 0 mm 1 mps 631 mmHg 80%
    07:00 -4°C° 0 mm 1 mps 631 mmHg 79%
    08:00 -4°C° 0 mm 1 mps 632 mmHg 78%
    09:00 -3°C° 0 mm 1 mps 632 mmHg 77%
    10:00 -2°C° 0 mm 1 mps 632 mmHg 76%
    11:00 -1°C° 0 mm 1 mps 632 mmHg 75%
    12:00 0°C° 0 mm 1 mps 632 mmHg 74%
    13:00 0°C° 0 mm 1 mps 631 mmHg 74%
    14:00 0°C° 0 mm 1 mps 631 mmHg 75%
    15:00 0°C° 0 mm 1 mps 631 mmHg 75%
    16:00 -1°C° 0 mm 1 mps 631 mmHg 76%
    17:00 -2°C° 0 mm 1 mps 631 mmHg 78%
    18:00 -3°C° 0 mm 1 mps 630 mmHg 80%
    19:00 -3°C° 0 mm 1 mps 631 mmHg 80%
    20:00 -3°C° 0 mm 1 mps 631 mmHg 80%
    21:00 -3°C° 0 mm 1 mps 631 mmHg 81%
    22:00 -4°C° 0 mm 1 mps 631 mmHg 81%
    23:00 -4°C° 0 mm 1 mps 631 mmHg 82%

    Day after tomorrow, 11 December, Wednesday

    Time Temperature Precipitation Wind Pressure Humidity
    00:00 -4°C° 0 mm 1 mps 631 mmHg 82%
    01:00 -4°C° 0 mm 1 mps 631 mmHg 83%
    02:00 -4°C° 0 mm 1 mps 631 mmHg 84%
    03:00 -4°C° 0 mm 1 mps 631 mmHg 84%
    04:00 -4°C° 0 mm 1 mps 630 mmHg 85%
    05:00 -6°C° 0 mm 0 mps 630 mmHg 85%
    06:00 -6°C° 0 mm 0 mps 630 mmHg 86%
    07:00 -5°C° 0 mm 0 mps 631 mmHg 84%
    08:00 -4°C° 0 mm 0 mps 631 mmHg 82%
    09:00 -4°C° 0 mm 0 mps 631 mmHg 80%
    10:00 -3°C° 0 mm 0 mps 631 mmHg 78%
    11:00 0°C° 0 mm 1 mps 631 mmHg 76%
    12:00 +1°C° 0 mm 1 mps 631 mmHg 74%
    13:00 +1°C° 0 mm 1 mps 631 mmHg 74%
    14:00 0°C° 0 mm 0 mps 631 mmHg 74%
    15:00 0°C° 0 mm 0 mps 631 mmHg 74%
    16:00 -1°C° 0 mm 1 mps 631 mmHg 76%
    17:00 -2°C° 0 mm 1 mps 631 mmHg 78%
    18:00 -3°C° 0 mm 1 mps 630 mmHg 80%
    19:00 -3°C° 0 mm 1 mps 631 mmHg 80%
    20:00 -3°C° 0 mm 1 mps 631 mmHg 80%
    21:00 -3°C° 0 mm 1 mps 631 mmHg 80%
    22:00 -4°C° 0 mm 1 mps 631 mmHg 81%
    23:00 -4°C° 0 mm 1 mps 631 mmHg 82%

    12 December, Thursday

    Time Temperature Precipitation Wind Pressure Humidity
    00:00 -4°C° 0 mm 1 mps 631 mmHg 82%
    01:00 -4°C° 0 mm 1 mps 631 mmHg 83%
    02:00 -4°C° 0 mm 1 mps 631 mmHg 84%
    03:00 -6°C° 0 mm 1 mps 630 mmHg 85%
    04:00 -6°C° 0 mm 1 mps 630 mmHg 86%
    05:00 -6°C° 0 mm 1 mps 630 mmHg 86%
    06:00 -6°C° 0 mm 1 mps 630 mmHg 87%
    07:00 -6°C° 0 mm 1 mps 630 mmHg 86%
    08:00 -4°C° 0 mm 1 mps 630 mmHg 84%
    09:00 -3°C° 0 mm 1 mps 631 mmHg 82%
    10:00 -2°C° 0 mm 1 mps 630 mmHg 80%
    11:00 -1°C° 0 mm 1 mps 630 mmHg 79%
    12:00 0°C° 0 mm 1 mps 630 mmHg 77%
    13:00 0°C° 0 mm 1 mps 629 mmHg 76%
    14:00 0°C° 0 mm 1 mps 629 mmHg 76%
    15:00 0°C° 0 mm 1 mps 629 mmHg 75%
    16:00 -1°C° 0 mm 1 mps 628 mmHg 78%
    17:00 -2°C° 0 mm 1 mps 628 mmHg 80%
    18:00 -3°C° 0 mm 1 mps 627 mmHg 82%
    19:00 -3°C° 0 mm 1 mps 627 mmHg 83%
    20:00 -4°C° 0 mm 1 mps 627 mmHg 83%
    21:00 -4°C° 0 mm 1 mps 627 mmHg 83%
    22:00 -4°C° 0 mm 1 mps 627 mmHg 83%
    23:00 -4°C° 0 mm 1 mps 626 mmHg 83%

    13 December, Friday

    Time Temperature Precipitation Wind Pressure Humidity
    00:00 -5°C° 0 mm 0 mps 626 mmHg 83%
    01:00 -4°C° 0 mm 1 mps 626 mmHg 84%
    02:00 -4°C° 0 mm 1 mps 626 mmHg 84%
    03:00 -4°C° 0 mm 1 mps 625 mmHg 85%
    04:00 -4°C° 0 mm 1 mps 625 mmHg 85%
    05:00 -4°C° 0 mm 1 mps 625 mmHg 86%
    06:00 -6°C° 0 mm 1 mps 625 mmHg 86%
    07:00 -4°C° 0 mm 1 mps 625 mmHg 84%
    08:00 -3°C° 0 mm 1 mps 625 mmHg 82%
    09:00 -3°C° 0 mm 0 mps 626 mmHg 80%
    10:00 -2°C° 0 mm 0 mps 626 mmHg 78%
    11:00 -1°C° 0 mm 0 mps 626 mmHg 76%
    12:00 0°C° 0 mm 0 mps 626 mmHg 74%
    13:00 0°C° 0 mm 0 mps 626 mmHg 75%
    14:00 0°C° 0 mm 0 mps 626 mmHg 75%
    15:00 0°C° 0 mm 0 mps 625 mmHg 75%
    16:00 -1°C° 0 mm 0 mps 626 mmHg 77%
    17:00 -2°C° 0 mm 0 mps 626 mmHg 78%
    18:00 -3°C° 0 mm 0 mps 626 mmHg 80%
    19:00 -4°C° 0 mm 0 mps 626 mmHg 80%
    20:00 -3°C° 0 mm 1 mps 626 mmHg 81%
    21:00 -3°C° 0 mm 1 mps 626 mmHg 81%
    22:00 -3°C° 0 mm 1 mps 626 mmHg 82%
    23:00 -3°C° 0 mm 1 mps 626 mmHg 83%

    14 December, Saturday

    Time Temperature Precipitation Wind Pressure Humidity
    00:00 -4°C° 0 mm 1 mps 626 mmHg 84%
    01:00 -4°C° 0 mm 1 mps 626 mmHg 85%
    02:00 -4°C° 0 mm 1 mps 627 mmHg 86%
    03:00 -4°C° 0 mm 1 mps 627 mmHg 87%
    04:00 -4°C° 0 mm 1 mps 627 mmHg 88%
    05:00 -4°C° 0 mm 1 mps 627 mmHg 89%
    06:00 -4°C° 0 mm 1 mps 627 mmHg 90%
    07:00 -4°C° 0 mm 1 mps 627 mmHg 88%
    08:00 -3°C° 0 mm 1 mps 627 mmHg 87%
    09:00 -2°C° 0 mm 1 mps 628 mmHg 85%
    10:00 -1°C° 0 mm 1 mps 628 mmHg 83%
    11:00 0°C° 0 mm 1 mps 628 mmHg 82%
    12:00 -2°C° 0 mm 2 mps 628 mmHg 80%
    13:00 0°C° 0.1 mm 1 mps 627 mmHg 81%
    14:00 +1°C° 0.1 mm 1 mps 627 mmHg 82%
    15:00 +1°C° 0.1 mm 1 mps 627 mmHg 82%
    16:00 0°C° 0 mm 1 mps 627 mmHg 85%
    17:00 -1°C° 0 mm 1 mps 627 mmHg 87%
    18:00 -2°C° 0 mm 1 mps 627 mmHg 89%
    19:00 -2°C° 0 mm 1 mps 627 mmHg 89%
    20:00 -2°C° 0 mm 1 mps 627 mmHg 89%
    21:00 -2°C° 0 mm 1 mps 628 mmHg 89%
    22:00 -2°C° 0 mm 1 mps 628 mmHg 89%
    23:00 -3°C° 0 mm 1 mps 628 mmHg 89%
    Show more